Location: ??????
(55.6130°N, 37.7882°E)
Time: 13:18:34
(UTC+00:00)

Cosmos 1624 Rocket - Pass Details

Date: 14 April 2024
Orbit: 755 x 781 km, 74.0° (Epoch: 17 May)

Event Time Altitude Azimuth Distance (km) Brightness Sun altitude
Rises 00:43:34 0° 331° (NNW) 3,256 7.4 -13.4°
Reaches altitude 10° 00:45:58 10° 332° (NNW) 2,321 6.6 -13.1°
Maximum altitude 00:51:14 87° 60° (ENE) 773 4.0 -12.6°
Drops below altitude 10° 00:56:27 10° 152° (SSE) 2,290 6.4 -12.0°
Sets 00:58:48 0° 153° (SSE) 3,208 7.1 -11.7°
